{"data":{"norad_id":49141,"intl_designator":"2021-082M","name":"STARLINK-3093","alt_names":[],"object_type":"PAYLOAD","status":"ACTIVE","operator":null,"country":"US","launch_date":"2021-09-14","launch_site_code":"AFWTR","launch_vehicle":null,"mission":null,"orbit_class":"UNKNOWN","rcs_meters":null,"size_class":null,"mass_kg":null,"dimensions":null,"purposes":["comms"],"wikipedia_slug":null,"has_3d_model":false,"image_url":null,"decayed_at":null,"tle_current":{"epoch":"2026-05-25T03:35:56.158656Z","epoch_age_seconds":65385,"freshness":"FRESH","line1":"1 49141U 21082M   26145.14995554 -.00001003  00000+0 -76274-4 0  9997","line2":"2 49141  69.9992 101.6830 0003446 265.7536  94.3229 14.98324439258635","mean_motion":14.98324439,"eccentricity":0.0003446,"inclination_deg":69.9992,"raan_deg":101.683,"arg_perigee_deg":265.7536,"mean_anomaly_deg":94.3229,"bstar":-7.6274e-5,"rev_number":25863,"period_min":96.107355824822,"perigee_km":569.67804553507,"apogee_km":574.46813032768,"semimajor_km":6950.2100879314,"source":"CELESTRAK","updated_at":"2026-05-25T13:38:16.785183Z"}}}